Regional Weather Roundup
Issued by NWS

Home | Current Version | Previous Version | Graphics & Text | Print | Product List | Glossary On
Versions: 1 2 3 4 5 6 7 8 9 10 11 12 13 14 15 16 17 18 19 20 21 22 23 24 25 26 27 28 29 30 31 32 33 34 35 36 37 38 39 40 41 42 43 44 45 46 47 48 49 50
000
ASUS45 KBOU 130607
RWRCO

WEATHER ROUNDUP FOR COLORADO
NATIONAL WEATHER SERVICE DENVER/BOULDER CO
1100 PM MST FRI FEB 12 2016

NOTE: "FAIR" INDICATES FEW OR NO CLOUDS BELOW 12000 FEET WITH NO
SIGNIFICANT WEATHER AND/OR OBSTRUCTIONS TO VISIBILITY.

COZ001>005-013-030-031-130700-
...NORTHWEST COLORADO...

CITY           SKY/WX    TMP DP  RH WIND       PRES   REMARKS
CRAIG          FAIR      12   8  84 CALM      30.32F
HAYDEN         FAIR      27  16  63 E13       30.31S WCI  16
MEEKER         FAIR      29  20  69 NE5       30.31F WCI  24
MOUNT WERNER   NOT AVBL
STEAMBOAT SPGS FAIR      24  19  82 CALM      30.32F
WALDEN         FAIR      36  21  55 S7        30.32F
$$

COZ006>008-011-130700-
...WEST CENTRAL VALLEYS...

CITY           SKY/WX    TMP DP  RH WIND       PRES   REMARKS
GRAND JUNCTION FAIR      32  28  85 E5        30.32F WCI  27
MONTROSE       FAIR      30  24  78 S8        30.36F WCI  22
EAGLE          CLEAR     27  25  93 CALM      30.37F
RIFLE          FAIR      29  20  69 CALM      30.35R
DELTA          FAIR      35  29  79 CALM      30.35S
NUCLA          FAIR      34  27  75 SE7       30.37S WCI  28
$$

COZ017>023-064>068-130700-
...SOUTHWEST COLORADO...

CITY           SKY/WX    TMP DP  RH WIND       PRES   REMARKS
DURANGO        FAIR      31  22  69 N8        30.38S WCI  23
CORTEZ         FAIR      26  21  81 E3        30.36S
PAGOSA SPRINGS FAIR      29  22  74 CALM      30.41S
TELLURIDE      FAIR      37  21  53 SE8       30.44F
WOLF CREEK PAS FAIR      30  14  51 SW15      30.56F WCI  19
$$

COZ009-010-012-014-032>034-037-058>063-130700-
...CENTRAL COLORADO...

CITY           SKY/WX    TMP DP  RH WIND       PRES   REMARKS
ASPEN          FAIR      28  18  66 SW7       30.35F WCI  21
BUENA VISTA    FAIR      31  23  72 CALM      30.35S
COPPER MTN     FAIR      34  16  47 W10G22    30.48F WCI  26
BERTHOUD PASS  FAIR      27  18  69 NW39G49   30.41F WCI   8
COTTONWOOD PAS FAIR      43  14  31 NW5       30.40F
GUNNISON       FAIR       3   0  85 NE3       30.48F
KREMMLING      FAIR       9   5  85 CALM      30.39F
LEADVILLE      FAIR      28  15  58 NE9       30.39F WCI  19
MONARCH PASS   FAIR      30  18  59 SW23      30.59F WCI  17
SALIDA         NOT AVBL
SUNLIGHT       FAIR      32  21  64 CALM      30.49S
WILKERSON PASS FAIR      32  18  55 SW9       30.45F WCI  24
$$

COZ069>075-130700-
...SAN LUIS VALLEY/SANGRE DE CRISTO MOUNTAINS...

CITY           SKY/WX    TMP DP  RH WIND       PRES   REMARKS
ALAMOSA        FAIR      26  22  84 S8        30.38S WCI  18
LA VETA PASS   FAIR      34  18  51 S13G21    30.43F WCI  25
SAGUACHE       FAIR      32  23  69 N12       30.39F WCI  23
$$

COZ035-036-038>040-130700-
...NORTHERN COLORADO FRONT RANGE...

CITY           SKY/WX    TMP DP  RH WIND       PRES   REMARKS
DENVER INTL AP FOG       30  28  92 N5        30.21F VSB 1/4 WCI  25
DMNS CITY PARK   N/A     36  32  87 MISG      30.20F
AURORA         MOCLDY    37  33  85 NW2       30.21F
FRONT RANGE AP   N/A     32  30  93 N6        30.22S WCI  26
ERIE MUNI ARPT FAIR      30  30  98 CALM      30.22F
BOULDER MUN AP FAIR      32  32 100 N6        30.21F WCI  26
CENTENNIAL     MOCLDY    39  32  76 CALM      30.20F
BROOMFIELD     FAIR      34  32  93 NW6       30.21F WCI  29
FORT COLLINS   CLOUDY    32  28  86 E7        30.24F VSB 1/4 WCI  26
LONGMONT       FAIR      34  32  93 N5        30.24F WCI  29
$$

COZ041-046-047-076>085-087-088-130700-
...PIKES PEAK/PALMER DIVIDE AND SOUTHERN FOOTHILLS...

CITY           SKY/WX    TMP DP  RH WIND       PRES   REMARKS
COLO. SPRINGS  MOCLDY    37  27  67 NE3       30.26F
A. F. ACADEMY  FAIR      31  27  83 N6        30.24F WCI  26
SCHRIEVER AFB  MOCLDY    36  28  72 N5        30.26F
ELLICOTT       FAIR     N/A N/A N/A E13       30.24F
FALCON         FAIR      32  26  77 CALM      30.26F
FORT CARSON    FAIR      39  29  67 S3        30.25F
LIMON          FOG       29  29 100 S15       30.27F VSB 3/4 WCI  18
MONUMENT HILL  FAIR      36  28  75 S8        30.25F
TRINIDAD       FAIR      49  21  33 W15       30.24S
$$

COZ042>045-048>051-090-091-130700-
...NORTHEAST COLORADO...

CITY           SKY/WX    TMP DP  RH WIND       PRES   REMARKS
GREELEY ARPT   CLOUDY    32  30  93 E5        30.25F VSB 1/2 WCI  27
AKRON          FOG       30  30 100 SE20      30.26S VSB 3/4 WCI  17
BURLINGTON     FOG       29  27  92 SE18      30.33S VSB 1/2 WCI  16
WRAY           CLOUDY   N/A N/A N/A SE16      30.34S FOG
STERLING       CLOUDY    32  32 100 S14       30.28F WCI  22
HOLYOKE        CLOUDY    34  32  93 S16       30.33S FOG     WCI  23
FORT MORGAN    FOG       31  31  97 SE9       30.25F VSB 1   WCI  23
$$

COZ086-089-092>099-130700-
...SOUTHEAST COLORADO...

CITY           SKY/WX    TMP DP  RH WIND       PRES   REMARKS
PUEBLO         FAIR      38  28  67 E7        30.27R
LA JUNTA       FAIR      32  28  85 E13       30.23F WCI  22
LAMAR          MOCLDY    29  26  89 E10       30.31S WCI  20
SPRINGFIELD      N/A     28  25  88 SE7       30.30F WCI  21
$$



USA.gov is the U.S. government's official web portal to all federal, state and local government web resources and services.